Weather in Petrovsk

Russia / Saratov Oblast     52°18′50″N   45°23′23″E
temp.,
°C
wind,
m/s
gust,
m/s
humid.,
%
clouds,
%
prec.,
mm/h
press.,
hPa
HPBL,
m
28 july, wed
wed2801:00+17nw22692 0.0 101713
04:00+17nw236747 0.0 101733
07:00+18n24745 0.1 1017111
10:00+24nne23490 0.1 1017621
13:00+27nnw34364 0.0 10162458
16:00+27nnw343544 0.0 10152339
19:00+24n2245100 0.0 101525
22:00+20ese3357100 0.0 101525
29 july, thu
thu2901:00+21sse3652100 0.0 1014113
04:00+18s2266100 0.3 101424
07:00+19s3461100 0.0 101386
10:00+20s3460100 0.0 101289
13:00+18se5879100 0.9 1011186
16:00+29sw9113851 0.9 10082248
19:00+23wsw5107099 0.5 1007244
22:00+21sw478072 0.6 1007127
30 july, fri
fri3001:00+20wnw34775 0.0 100867
04:00+18w22815 0.0 100813
07:00+20w22745 0.0 100984
10:00+26sw235232 0.0 1009617
13:00+30wsw453897 0.0 10082685
16:00+28wsw3446100 0.0 10081012
19:00+28sw24475 0.0 1007199
22:00+23s33545 0.0 100728
31 july, sat
sat3101:00+20wsw116923 0.2 100711
04:00+19sw3485100 0.8 100667
07:00+20wsw378978 1.8 1007211
10:00+24w4570100 1.8 1008545
13:00+28wnw5651100 0.0 10081602
16:00+29w5643100 0.0 10082208
19:00+27wnw36471 0.0 1009231
22:00+22nw33573 0.0 101036
1 august, sun
sun101:00+20ssw11585 0.0 101111
04:00+19sw225946 0.0 101213
07:00+20sw24635 0.0 1013105
10:00+27sw34440 0.0 1012611
13:00+31wsw34300 0.0 10122449
16:00+32w35290 0.0 10112745
19:00+30wsw23390 0.0 101164
22:00+24sse334517 0.0 101127